When you browse on this site, cookies collect data to enhance your experience and personalize the content and advertising you see.
Visit our Privacy Policy to learn more. By continuing to use the site, you agree to this use of cookies and data.
  • In Portugal
  • List of Countries
  • For 7 days
  • Water Temperature
  • Satellite Maps
  • Weather Map
  • Weather Widgets
  • user-avatar
    Login

    Hourly Weather Anielew

    Today, 24 June, Monday

    Time Temperature Precipitation Wind Pressure Humidity
    00:00 +14°C° 0 mm 3 mps 760 mmHg 91%
    01:00 +13°C° 0 mm 3 mps 760 mmHg 94%
    02:00 +13°C° 0 mm 3 mps 760 mmHg 93%
    03:00 +13°C° 0 mm 3 mps 760 mmHg 93%
    04:00 +14°C° 0 mm 2 mps 760 mmHg 93%
    05:00 +16°C° 0 mm 3 mps 760 mmHg 88%
    06:00 +17°C° 0 mm 3 mps 761 mmHg 83%
    07:00 +20°C° 0 mm 3 mps 761 mmHg 79%
    08:00 +21°C° 0 mm 3 mps 761 mmHg 73%
    09:00 +24°C° 0 mm 3 mps 761 mmHg 67%
    10:00 +25°C° 0 mm 4 mps 761 mmHg 61%
    11:00 +26°C° 0 mm 3 mps 761 mmHg 57%
    12:00 +27°C° 0 mm 3 mps 761 mmHg 54%
    13:00 +28°C° 0 mm 3 mps 761 mmHg 51%
    14:00 +28°C° 0 mm 3 mps 761 mmHg 52%
    15:00 +28°C° 0 mm 4 mps 761 mmHg 53%
    16:00 +28°C° 0 mm 4 mps 760 mmHg 54%
    17:00 +27°C° 0 mm 4 mps 761 mmHg 60%
    18:00 +26°C° 0 mm 3 mps 761 mmHg 66%
    19:00 +24°C° 0 mm 3 mps 761 mmHg 72%
    20:00 +22°C° 0 mm 3 mps 761 mmHg 74%
    21:00 +21°C° 0 mm 3 mps 761 mmHg 77%
    22:00 +20°C° 0 mm 4 mps 762 mmHg 79%
    23:00 +19°C° 0 mm 3 mps 762 mmHg 81%

    Tomorrow, 25 June, Tuesday

    Time Temperature Precipitation Wind Pressure Humidity
    00:00 +18°C° 0 mm 3 mps 762 mmHg 84%
    01:00 +17°C° 0 mm 3 mps 763 mmHg 86%
    02:00 +17°C° 0 mm 3 mps 762 mmHg 87%
    03:00 +16°C° 0 mm 3 mps 762 mmHg 88%
    04:00 +16°C° 0 mm 3 mps 762 mmHg 89%
    05:00 +17°C° 0 mm 4 mps 762 mmHg 84%
    06:00 +19°C° 0 mm 4 mps 762 mmHg 79%
    07:00 +21°C° 0 mm 4 mps 762 mmHg 73%
    08:00 +22°C° 0 mm 4 mps 762 mmHg 70%
    09:00 +25°C° 0 mm 4 mps 762 mmHg 67%
    10:00 +26°C° 0 mm 5 mps 762 mmHg 64%
    11:00 +27°C° 0 mm 5 mps 762 mmHg 63%
    12:00 +28°C° 0 mm 5 mps 761 mmHg 62%
    13:00 +29°C° 0 mm 5 mps 761 mmHg 61%
    14:00 +29°C° 0 mm 4 mps 761 mmHg 61%
    15:00 +30°C° 0 mm 4 mps 760 mmHg 61%
    16:00 +30°C° 0 mm 4 mps 760 mmHg 62%
    17:00 +29°C° 0 mm 4 mps 760 mmHg 67%
    18:00 +28°C° 0 mm 3 mps 760 mmHg 72%
    19:00 +27°C° 0 mm 3 mps 760 mmHg 77%
    20:00 +26°C° 0 mm 4 mps 760 mmHg 77%
    21:00 +25°C° 0 mm 4 mps 760 mmHg 78%
    22:00 +23°C° 0 mm 4 mps 760 mmHg 78%
    23:00 +22°C° 0 mm 4 mps 760 mmHg 79%

    Day after tomorrow, 26 June, Wednesday

    Time Temperature Precipitation Wind Pressure Humidity
    00:00 +22°C° 0 mm 4 mps 760 mmHg 80%
    01:00 +21°C° 0 mm 3 mps 760 mmHg 81%
    02:00 +21°C° 0 mm 3 mps 760 mmHg 82%
    03:00 +20°C° 0 mm 3 mps 759 mmHg 84%
    04:00 +20°C° 0 mm 3 mps 759 mmHg 86%
    05:00 +21°C° 0 mm 3 mps 759 mmHg 84%
    06:00 +24°C° 0 mm 3 mps 759 mmHg 82%
    07:00 +25°C° 0 mm 3 mps 759 mmHg 80%
    08:00 +27°C° 0 mm 2 mps 759 mmHg 74%
    09:00 +29°C° 0 mm 2 mps 758 mmHg 68%
    10:00 +31°C° 0 mm 2 mps 758 mmHg 62%
    11:00 +33°C° 0 mm 3 mps 758 mmHg 57%
    12:00 +34°C° 0 mm 3 mps 757 mmHg 52%
    13:00 +35°C° 0 mm 3 mps 757 mmHg 47%
    14:00 +34°C° 0 mm 3 mps 757 mmHg 48%
    15:00 +34°C° 0 mm 4 mps 756 mmHg 50%
    16:00 +34°C° 0 mm 4 mps 756 mmHg 51%
    17:00 +33°C° 0 mm 3 mps 755 mmHg 56%
    18:00 +31°C° 0 mm 3 mps 755 mmHg 61%
    19:00 +30°C° 0 mm 2 mps 755 mmHg 66%
    20:00 +29°C° 0.3 mm 2 mps 755 mmHg 69%
    21:00 +28°C° 0.3 mm 2 mps 755 mmHg 72%
    22:00 +26°C° 0.3 mm 2 mps 755 mmHg 75%
    23:00 +25°C° 1 mm 3 mps 755 mmHg 81%

    27 June, Thursday

    Time Temperature Precipitation Wind Pressure Humidity
    00:00 +24°C° 1 mm 3 mps 754 mmHg 87%
    01:00 +22°C° 1 mm 3 mps 754 mmHg 93%
    02:00 +22°C° 0.1 mm 4 mps 754 mmHg 92%
    03:00 +21°C° 0.1 mm 5 mps 755 mmHg 91%
    04:00 +21°C° 0.1 mm 6 mps 755 mmHg 90%
    05:00 +20°C° 0 mm 6 mps 755 mmHg 88%
    06:00 +20°C° 0 mm 7 mps 755 mmHg 86%
    07:00 +18°C° 0 mm 7 mps 755 mmHg 84%
    08:00 +20°C° 0 mm 7 mps 756 mmHg 79%
    09:00 +21°C° 0 mm 7 mps 756 mmHg 74%
    10:00 +22°C° 0 mm 6 mps 756 mmHg 69%
    11:00 +23°C° 0.1 mm 6 mps 756 mmHg 68%
    12:00 +23°C° 0.1 mm 6 mps 756 mmHg 67%
    13:00 +24°C° 0.1 mm 6 mps 756 mmHg 66%
    14:00 +25°C° 0.2 mm 5 mps 756 mmHg 67%
    15:00 +25°C° 0.2 mm 5 mps 756 mmHg 68%
    16:00 +25°C° 0.2 mm 4 mps 756 mmHg 69%
    17:00 +23°C° 0.2 mm 4 mps 756 mmHg 72%
    18:00 +22°C° 0.2 mm 3 mps 756 mmHg 74%
    19:00 +21°C° 0.2 mm 3 mps 756 mmHg 77%
    20:00 +20°C° 0 mm 2 mps 756 mmHg 79%
    21:00 +18°C° 0 mm 2 mps 756 mmHg 80%
    22:00 +18°C° 0 mm 1 mps 756 mmHg 82%
    23:00 +16°C° 0 mm 1 mps 756 mmHg 83%

    28 June, Friday

    Time Temperature Precipitation Wind Pressure Humidity
    00:00 +16°C° 0 mm 1 mps 756 mmHg 83%
    01:00 +16°C° 0 mm 1 mps 756 mmHg 84%
    02:00 +16°C° 0 mm 1 mps 756 mmHg 86%
    03:00 +16°C° 0 mm 2 mps 756 mmHg 88%
    04:00 +16°C° 0 mm 2 mps 755 mmHg 90%
    05:00 +16°C° 0 mm 3 mps 755 mmHg 87%
    06:00 +17°C° 0 mm 4 mps 755 mmHg 84%
    07:00 +17°C° 0 mm 5 mps 755 mmHg 81%
    08:00 +19°C° 0 mm 5 mps 755 mmHg 77%
    09:00 +20°C° 0 mm 5 mps 755 mmHg 74%
    10:00 +21°C° 0 mm 5 mps 755 mmHg 70%
    11:00 +22°C° 0.2 mm 5 mps 755 mmHg 67%
    12:00 +23°C° 0.2 mm 5 mps 755 mmHg 64%
    13:00 +24°C° 0.2 mm 6 mps 755 mmHg 60%
    14:00 +24°C° 0 mm 6 mps 755 mmHg 56%
    15:00 +24°C° 0 mm 6 mps 755 mmHg 52%
    16:00 +24°C° 0 mm 6 mps 755 mmHg 48%
    17:00 +22°C° 0 mm 6 mps 755 mmHg 55%
    18:00 +21°C° 0 mm 5 mps 756 mmHg 61%
    19:00 +19°C° 0 mm 4 mps 756 mmHg 68%
    20:00 +17°C° 0 mm 4 mps 756 mmHg 68%
    21:00 +14°C° 0 mm 3 mps 757 mmHg 69%
    22:00 +14°C° 0 mm 2 mps 757 mmHg 69%
    23:00 +13°C° 0 mm 2 mps 757 mmHg 70%

    29 June, Saturday

    Time Temperature Precipitation Wind Pressure Humidity
    00:00 +13°C° 0 mm 1 mps 757 mmHg 71%
    01:00 +11°C° 0 mm 0 mps 757 mmHg 71%
    02:00 +12°C° 0 mm 0 mps 757 mmHg 70%
    03:00 +13°C° 0 mm 1 mps 757 mmHg 69%
    04:00 +13°C° 0 mm 1 mps 757 mmHg 68%
    05:00 +14°C° 0 mm 1 mps 757 mmHg 67%
    06:00 +15°C° 0 mm 1 mps 757 mmHg 66%
    07:00 +16°C° 0 mm 1 mps 757 mmHg 66%
    08:00 +17°C° 0 mm 2 mps 757 mmHg 61%
    09:00 +19°C° 0 mm 2 mps 757 mmHg 57%
    10:00 +20°C° 0 mm 3 mps 757 mmHg 53%
    11:00 +21°C° 0 mm 4 mps 757 mmHg 52%
    12:00 +23°C° 0 mm 5 mps 756 mmHg 51%
    13:00 +25°C° 0 mm 5 mps 756 mmHg 50%
    14:00 +25°C° 0 mm 5 mps 756 mmHg 49%
    15:00 +24°C° 0 mm 6 mps 756 mmHg 48%
    16:00 +24°C° 0 mm 6 mps 756 mmHg 47%
    17:00 +22°C° 0 mm 5 mps 756 mmHg 52%
    18:00 +20°C° 0 mm 5 mps 756 mmHg 57%
    19:00 +18°C° 0 mm 4 mps 756 mmHg 62%
    20:00 +15°C° 0 mm 4 mps 757 mmHg 64%
    21:00 +13°C° 0 mm 3 mps 757 mmHg 66%
    22:00 +11°C° 0 mm 3 mps 757 mmHg 68%
    23:00 +12°C° 0 mm 2 mps 757 mmHg 69%
    Show more